EZY1480 EGGD-EGJJ

Flight info

Callsign EZY1480
Flight time 0h 35m
Altitude 8000
Route EXMOR DCT EXMOR/N0273F070 N40 KLAKI/N0389F230 L149 BIGNO
Aircraft A20N/M-SDE2E3FGHIRWXY/LB1

Departure

Time 2026-05-04 17:42
Airport Bristol Airport (EGGD)

Arrival

Time 2026-05-04 18:17
Airport Jersey Airport (EGJJ)
Time Latitude Longitude Altitude Speed Heading
2026-05-04 17:25 51.38551 -2.71079 630 ft 0 kts 356°
2026-05-04 17:31 51.38543 -2.71078 630 ft 2 kts 356°
2026-05-04 17:31 51.38499 -2.71074 629 ft 2 kts 356°
2026-05-04 17:32 51.38492 -2.71073 629 ft 0 kts 356°
2026-05-04 17:33 51.38462 -2.71038 630 ft 2 kts 284°
2026-05-04 17:33 51.38461 -2.71024 630 ft 0 kts 268°
2026-05-04 17:34 51.38462 -2.71013 630 ft 0 kts 265°
2026-05-04 17:35 51.38462 -2.71016 630 ft 1 kts 266°
2026-05-04 17:35 51.38461 -2.71038 630 ft 0 kts 266°
2026-05-04 17:37 51.38460 -2.71052 630 ft 2 kts 266°
2026-05-04 17:37 51.38459 -2.71090 630 ft 4 kts 266°
2026-05-04 17:38 51.38456 -2.71148 630 ft 6 kts 266°
2026-05-04 17:38 51.38453 -2.71249 630 ft 11 kts 266°
2026-05-04 17:38 51.38446 -2.71407 630 ft 16 kts 266°
2026-05-04 17:38 51.38438 -2.71618 630 ft 21 kts 266°
2026-05-04 17:39 51.38428 -2.72120 630 ft 23 kts 265°
2026-05-04 17:39 51.38418 -2.72383 630 ft 24 kts 266°
2026-05-04 17:39 51.38408 -2.72655 630 ft 24 kts 266°
2026-05-04 17:40 51.38398 -2.72926 630 ft 24 kts 267°
2026-05-04 17:40 51.38388 -2.73192 630 ft 19 kts 259°
2026-05-04 17:40 51.38311 -2.73349 630 ft 18 kts 195°
2026-05-04 17:40 51.38217 -2.73295 630 ft 8 kts 112°
2026-05-04 17:41 51.38217 -2.73232 630 ft 4 kts 84°
2026-05-04 17:41 51.38225 -2.73060 630 ft 47 kts 86°
2026-05-04 17:41 51.38262 -2.72119 630 ft 121 kts 86°
2026-05-04 17:41 51.38325 -2.70536 968 ft 150 kts 84°
2026-05-04 17:42 51.38370 -2.68864 1653 ft 154 kts 83°
2026-05-04 17:42 51.38419 -2.67188 2432 ft 157 kts 84°
2026-05-04 17:42 51.38479 -2.65378 3047 ft 172 kts 84°
2026-05-04 17:42 51.38544 -2.63370 3614 ft 193 kts 85°
2026-05-04 17:43 51.38615 -2.61135 4284 ft 211 kts 85°
2026-05-04 17:43 51.38691 -2.58712 4963 ft 229 kts 85°
2026-05-04 17:43 51.38590 -2.56082 5634 ft 249 kts 107°
2026-05-04 17:43 51.37624 -2.53727 6334 ft 269 kts 139°
2026-05-04 17:44 51.35902 -2.52495 7152 ft 281 kts 173°
2026-05-04 17:44 51.33998 -2.52972 8158 ft 284 kts 206°
2026-05-04 17:44 51.32439 -2.54867 9202 ft 285 kts 222°
2026-05-04 17:44 51.31154 -2.57255 10147 ft 290 kts 240°
2026-05-04 17:45 51.30544 -2.60330 10888 ft 301 kts 262°
2026-05-04 17:45 51.30418 -2.63768 11437 ft 320 kts 268°
2026-05-04 17:45 51.30386 -2.67353 11926 ft 338 kts 268°
2026-05-04 17:45 51.30324 -2.71257 12363 ft 357 kts 267°
2026-05-04 17:46 51.30217 -2.75299 12733 ft 375 kts 266°
2026-05-04 17:46 51.30074 -2.79529 13060 ft 387 kts 266°
2026-05-04 17:46 51.29910 -2.83825 13713 ft 395 kts 265°
2026-05-04 17:46 51.29735 -2.88209 14451 ft 396 kts 265°
2026-05-04 17:47 51.29557 -2.92565 14874 ft 398 kts 265°
2026-05-04 17:47 51.29263 -2.96952 14996 ft 398 kts 259°
2026-05-04 17:47 51.28587 -3.01251 14996 ft 396 kts 251°
2026-05-04 17:47 51.27560 -3.05291 14998 ft 395 kts 243°
2026-05-04 17:48 51.26351 -3.09198 15001 ft 394 kts 242°
2026-05-04 17:48 51.25100 -3.13110 14993 ft 394 kts 242°
2026-05-04 17:48 51.23856 -3.16997 14999 ft 395 kts 242°
2026-05-04 17:48 51.22620 -3.20889 14992 ft 395 kts 242°
2026-05-04 17:49 51.21153 -3.24550 14983 ft 393 kts 227°
2026-05-04 17:49 51.19035 -3.27275 14998 ft 391 kts 208°
2026-05-04 17:49 51.16518 -3.28782 15005 ft 389 kts 191°
2026-05-04 17:49 51.13851 -3.28988 14997 ft 389 kts 174°
2026-05-04 17:50 51.11229 -3.27872 14998 ft 388 kts 157°
2026-05-04 17:50 51.08803 -3.26091 14998 ft 389 kts 156°
2026-05-04 17:50 51.06223 -3.24718 14989 ft 389 kts 168°
2026-05-04 17:50 51.03518 -3.24282 14998 ft 390 kts 178°
2026-05-04 17:51 51.00823 -3.24209 14993 ft 390 kts 179°
2026-05-04 17:51 50.98107 -3.24180 14987 ft 389 kts 179°
2026-05-04 17:51 50.95420 -3.24151 14982 ft 389 kts 179°
2026-05-04 17:51 50.92714 -3.24113 14986 ft 389 kts 179°
2026-05-04 17:52 50.90008 -3.24069 14972 ft 388 kts 179°
2026-05-04 17:52 50.87310 -3.24020 14952 ft 388 kts 179°
2026-05-04 17:52 50.84582 -3.23969 14992 ft 388 kts 179°
2026-05-04 17:52 50.81903 -3.23917 14998 ft 388 kts 179°
2026-05-04 17:53 50.79195 -3.23855 14999 ft 388 kts 178°
2026-05-04 17:53 50.76522 -3.23626 14974 ft 388 kts 175°
2026-05-04 17:53 50.73841 -3.23158 14976 ft 388 kts 172°
2026-05-04 17:53 50.71185 -3.22466 14978 ft 387 kts 169°
2026-05-04 17:54 50.68515 -3.21727 15020 ft 387 kts 170°
2026-05-04 17:54 50.65879 -3.21003 14994 ft 387 kts 170°
2026-05-04 17:54 50.63213 -3.20272 14989 ft 387 kts 169°
2026-05-04 17:54 50.60593 -3.19556 14995 ft 387 kts 169°
2026-05-04 17:55 50.57941 -3.18831 15020 ft 387 kts 169°
2026-05-04 17:55 50.55276 -3.18101 15012 ft 387 kts 169°
2026-05-04 17:55 50.52641 -3.17381 15019 ft 387 kts 169°
2026-05-04 17:55 50.49977 -3.16655 15021 ft 387 kts 169°
2026-05-04 17:56 50.47344 -3.15938 15014 ft 387 kts 169°
2026-05-04 17:56 50.44712 -3.15222 15012 ft 387 kts 169°
2026-05-04 17:56 50.42055 -3.14499 15010 ft 387 kts 169°
2026-05-04 17:56 50.39430 -3.13686 15008 ft 387 kts 166°
2026-05-04 17:57 50.36848 -3.12471 15011 ft 387 kts 160°
2026-05-04 17:57 50.34367 -3.10851 15016 ft 387 kts 154°
2026-05-04 17:57 50.31992 -3.08940 15014 ft 387 kts 152°
2026-05-04 17:57 50.29619 -3.06961 15014 ft 387 kts 151°
2026-05-04 17:58 50.27262 -3.04990 15011 ft 386 kts 151°
2026-05-04 17:58 50.24889 -3.03010 15014 ft 386 kts 151°
2026-05-04 17:58 50.22522 -3.01043 15011 ft 385 kts 151°
2026-05-04 17:58 50.20170 -2.99094 15010 ft 385 kts 151°
2026-05-04 17:59 50.17793 -2.97128 15011 ft 385 kts 151°
2026-05-04 17:59 50.15444 -2.95188 15014 ft 386 kts 151°
2026-05-04 17:59 50.10713 -2.91290 15007 ft 386 kts 151°
2026-05-04 18:00 50.08338 -2.89335 15010 ft 386 kts 151°
2026-05-04 18:00 50.05959 -2.87382 15003 ft 387 kts 151°
2026-05-04 18:00 50.03604 -2.85450 14997 ft 387 kts 151°
2026-05-04 18:00 50.01169 -2.83612 14853 ft 388 kts 155°
2026-05-04 18:01 49.98660 -2.82101 14597 ft 386 kts 160°
2026-05-04 18:01 49.96093 -2.80921 14216 ft 385 kts 164°
2026-05-04 18:01 49.93512 -2.79890 13689 ft 382 kts 164°
2026-05-04 18:02 49.88429 -2.77892 12517 ft 375 kts 164°
2026-05-04 18:02 49.85887 -2.76889 11974 ft 370 kts 164°
2026-05-04 18:02 49.83431 -2.75922 11555 ft 361 kts 165°
2026-05-04 18:02 49.81050 -2.74984 11237 ft 349 kts 165°
2026-05-04 18:03 49.78717 -2.74065 11006 ft 336 kts 165°
2026-05-04 18:03 49.76466 -2.73181 10777 ft 324 kts 165°
2026-05-04 18:03 49.74318 -2.72336 10564 ft 312 kts 165°
2026-05-04 18:03 49.72268 -2.71531 10375 ft 301 kts 165°
2026-05-04 18:04 49.70270 -2.70747 10217 ft 290 kts 165°
2026-05-04 18:04 49.68372 -2.70002 10067 ft 279 kts 165°
2026-05-04 18:04 49.64660 -2.68547 9446 ft 274 kts 165°
2026-05-04 18:05 49.62794 -2.67817 9091 ft 273 kts 165°
2026-05-04 18:05 49.60957 -2.67097 8749 ft 272 kts 165°
2026-05-04 18:05 49.59119 -2.66378 8399 ft 271 kts 165°
2026-05-04 18:05 49.57296 -2.65665 8073 ft 270 kts 165°
2026-05-04 18:06 49.53684 -2.64257 7400 ft 268 kts 164°
2026-05-04 18:06 49.51874 -2.63551 7057 ft 267 kts 164°
2026-05-04 18:06 49.50075 -2.62850 6719 ft 266 kts 164°
2026-05-04 18:07 49.48273 -2.62149 6379 ft 265 kts 164°
2026-05-04 18:07 49.46488 -2.61455 6044 ft 264 kts 164°
2026-05-04 18:07 49.44693 -2.60734 5707 ft 263 kts 162°
2026-05-04 18:07 49.42988 -2.59835 5378 ft 261 kts 156°
2026-05-04 18:08 49.41335 -2.58721 5047 ft 255 kts 153°
2026-05-04 18:08 49.39722 -2.57578 4729 ft 253 kts 153°
2026-05-04 18:08 49.38132 -2.56446 4415 ft 253 kts 152°
2026-05-04 18:08 49.36520 -2.55300 4096 ft 252 kts 152°
2026-05-04 18:09 49.33349 -2.53055 3483 ft 251 kts 152°
2026-05-04 18:09 49.30341 -2.50936 3381 ft 225 kts 152°
2026-05-04 18:10 49.28972 -2.49974 3355 ft 211 kts 152°
2026-05-04 18:10 49.27685 -2.49071 3393 ft 191 kts 152°
2026-05-04 18:10 49.26530 -2.48261 3333 ft 176 kts 151°
2026-05-04 18:10 49.25451 -2.47503 3249 ft 161 kts 151°
2026-05-04 18:11 49.24472 -2.46815 3173 ft 147 kts 150°
2026-05-04 18:11 49.23547 -2.46162 3084 ft 146 kts 150°
2026-05-04 18:11 49.22623 -2.45509 2989 ft 146 kts 150°
2026-05-04 18:11 49.21694 -2.44853 2761 ft 146 kts 150°
2026-05-04 18:12 49.20764 -2.44198 2551 ft 145 kts 150°
2026-05-04 18:12 49.19855 -2.43560 2353 ft 145 kts 150°
2026-05-04 18:12 49.19073 -2.42661 2142 ft 137 kts 112°
2026-05-04 18:12 49.18935 -2.41277 2002 ft 131 kts 83°
2026-05-04 18:13 49.19058 -2.39899 1987 ft 131 kts 76°
2026-05-04 18:13 49.19212 -2.38535 1986 ft 130 kts 77°
2026-05-04 18:13 49.19470 -2.35779 1982 ft 131 kts 78°
2026-05-04 18:14 49.19583 -2.34399 1987 ft 131 kts 80°
2026-05-04 18:14 49.19692 -2.33015 1879 ft 131 kts 80°
2026-05-04 18:14 49.19803 -2.31632 1705 ft 130 kts 80°
2026-05-04 18:15 49.20023 -2.28895 1354 ft 130 kts 79°
2026-05-04 18:15 49.20249 -2.26121 1010 ft 131 kts 80°
2026-05-04 18:15 49.20362 -2.24744 835 ft 130 kts 80°
2026-05-04 18:16 49.20471 -2.23374 672 ft 131 kts 81°
2026-05-04 18:16 49.20588 -2.21990 509 ft 131 kts 80°
2026-05-04 18:16 49.20706 -2.20601 312 ft 130 kts 81°
2026-05-04 18:17 49.20858 -2.18813 274 ft 38 kts 82°
2026-05-04 18:17 49.20884 -2.18457 275 ft 20 kts 99°
2026-05-04 18:17 49.20736 -2.18466 274 ft 16 kts 238°
2026-05-04 18:18 49.20718 -2.18643 274 ft 18 kts 263°
2026-05-04 18:18 49.20700 -2.18861 274 ft 23 kts 263°
2026-05-04 18:18 49.20678 -2.19138 275 ft 24 kts 265°
2026-05-04 18:18 49.20705 -2.19359 275 ft 21 kts 282°
2026-05-04 18:19 49.20644 -2.19663 274 ft 10 kts 212°
2026-05-04 18:19 49.20610 -2.19737 274 ft 8 kts 237°
2026-05-04 18:19 49.20582 -2.19756 274 ft 2 kts 181°
2026-05-04 18:20 49.20564 -2.19754 274 ft 2 kts 174°
2026-05-04 18:20 49.20560 -2.19753 274 ft 0 kts 174°